Погода Алуксне

Погода Алуксне : погода сейчас, прогноз погоды и архив. Всё, что Вы хотите узнать о погоде Алуксне!

Поиск расширенной информации на нашем сайте:

Другие новости

Новости СМИ2

Главная страница сайта

Новости сайта

03.07.2017

Напоминаем, что на нашем специализированном сайте Метеоцентр.Азия вы можете получить высокодетализированные автоматические прогнозы погоды по пунктам России, СНГ и мира в авиационном формате (включающие направление и скорость ветра, видимость, явления погоды, количество и форму облачности, нижнюю и верхнюю границу облачности).

Рекомендуем: Прикольный подарок - Авто номера - автомобильные номера имена

Погода Алуксне - сегодня

Время (UTC), дата Ветер
(°,м/с) 
Видим.   Явления Облачность Т
(°С)
Тd
(°С)
f(%) Тe
(°С)
Pmin
(гПа)
dP
(гПа)
Po
(мм)
O2
(г/м3)
Тmin Tmax R s Состояние
почвы
18 18.06.18 290 (З) 3{11}  10 км    9/0 средняя, верхняя 
[Ac lent|Ci fib]
+18.6 +10.4 59 +21  1014.2  744  278    +27.8       
21 18.06.18 280 (З) 10 км    10/8 1000 м средняя 
[Sc|Ac trans]
+16.3 +11.4 73 +20  1015.1  0.7  744  280           
00 19.06.18 тихо ()   10 км    4/4 1000 м 
[Sc]
+12.9 +10.4 85 +15  1015.2  -0.2  744  284           
03 19.06.18 тихо ()   10 км    3/0 средняя, верхняя 
[Ac lent|Ci fib]
+13.1 +11.3 89 +16  1014.8  -0.4  744  283           
06 19.06.18 240 (ЮЗ) 10 км    4/1 600 м верхняя 
[Cu hum|Ci fib]
+16.8 +10.8 68 +19  1013.9  -0.6  743  279  +10.7         
09 19.06.18 240 (ЮЗ) 10 км    10/10 600 м 
[Sc]
+17.6 +9.4 59 +19  1012.1  -1.7  742  279           
12 19.06.18 240 (ЮЗ) 5{11}  10 км    10/9 600 м средняя 
[Sc|Ac und]
+20.7 +10.7 53 +23  1008.8  -2.9  740  275           
15 19.06.18 250 (З) 4{15}  10 км  {ливн. осадки}  10/10 300 м кучево-дожд. 
[Cb calv]
+16.8 +13.1 79 +23  1008.4  -0.7  739  277           
21 19.06.18 270 (З) 3{10}  10 км  {ливн. осадки}  ясно 
+12.8 +9.9 83 +14  1011  0.9  741  283           
00 20.06.18 230 (ЮЗ) 2{10}  10 км  {ливн. осадки}  ясно 
+11.7 +9.7 88 +13  1011.2  0.1  741  284           
03 20.06.18 250 (З) 10 км    ясно 
+12.3 +10.8 91 +16  1011.3  0.1  741  283           
06 20.06.18 270 (З) 5-10{12}  10 км    8/5 600 м верхняя 
[Cu med, cong|Ci fib]
+15.5 +8.6 63 +15  1011.5  0.5  741  280  +11.4    0.3     
09 20.06.18 270 (З) 5-10{13}  10 км    8/6 1000 м верхняя 
[Cu med, cong|Ci sp]
+17.3 +6.7 50 +17  1012.5  1.1  742  279           
12 20.06.18 270 (З) 6-12{14}  10 км    8/8 1000 м 
[Cu med, cong]
+18.2 +6.3 46 +18  1013.2  0.7  743  279           
15 20.06.18 300 (СЗ) 6-10{14}  10 км    4/3 1000 м кучево-дожд., верхняя 
[Cb calv|Ci sp]
+18.2 +4.7 41 +18  1013  -0.2  743  279           
18 20.06.18 290 (З) 4{14}  10 км    9/9 600 м 
[Sc]
+16.4 +6.2 51 +16  1012.5  -0.6  742  280    +19.3       
21 20.06.18 260 (З) 10 км    9/9 600 м 
[Sc]
+14.1 +7.3 64 +15  1012.3  -0.4  742  282           
00 21.06.18 210 (ЮЗ) 10 км    10/10 600 м 
[Sc]
+14.2 +7.6 64 +14  1010.1  -2.1  740  282           
03 21.06.18 250 (З) 10 км  {ливн. осадки}  10/10 300 м кучево-дожд. 
[Cb calv]
+14.3 +11.9 85 +19  1009.4  -0.7  740  280           
06 21.06.18 210 (ЮЗ) 10 км  {ливн. осадки}  10/10 300 м кучево-дожд. 
[Cb calv]
+16 +12.7 81 +21  1009.2  740  278  +13.2    0.5     
09 21.06.18 200 (Ю) 10 км  {ливн. осадки}  8/8 300 м кучево-дожд. 
[Cb calv]
+18.7 +16.1 85 +31  1007.6  -1.3  739  274           
12 21.06.18 220 (ЮЗ) 4{11}  10 км  {ливн. осадки}  8/4 1000 м верхняя 
[Cu med, cong|Ci fib]
+24.4 +10.6 42 +27  1005.3  -1.9  737  271           
15 21.06.18 210 (ЮЗ) 5{11}  10 км    6/3 600 м кучево-дожд., верхняя 
[Cb calv|Ci fib]
+25.9 +9.6 36 +27  1003  -2.1  736  269           
18 21.06.18 160 (Ю) 3{11}  10 км    9/9 300 м кучево-дожд. 
[Cb calv]
+23.7 +10.7 44 +26  1000.5  -2.6  734  269    +26.3     
21 21.06.18 170 (Ю) 5{11}  10 км    9/9 300 м кучево-дожд. 
[Cb calv]
+22.8 +10.2 45 +25  997.2  -3.3  731  269           
Время (UTC), дата Ветер
(°,м/с) 
Видим.   Явления Облачность Т
(°С)
Тd
(°С)
f(%) Тe
(°С)
Pmin
(гПа)
dP
(гПа)
Po
(мм)
O2
(г/м3)
Тmin Tmax R s Состояние
почвы

Для получения пояснительной информации подведите курсор к названию столбца.

ПОГОДА Алуксне - архив

Всё, что Вы хотите узнать о погоде Алуксне - удобно и подробно!

Выберите нужную дату (начиная с 1 января 2015* года) и нажмите кнопку "Найти".
Будут отображены архивные сводки погоды по пункту Алуксне, начиная с указанной даты.


Отображать данные в формате CSV (для использования в таблицах Excel)


Внимание! Наш архив погоды предназначен исключительно для личного некоммерческого использования в познавательных целях. Если Вам необходимы официальные справки о состоянии погоды (для производственных, юридических, коммерческих и т.п. целей), обращайтесь в органы Росгидромета.

*Примечание: данная дата относится к архиву по метеостанциям СССР (Россия, СНГ, Балтия).
Архив по метеостанциям Зарубежной Европы и Азии (кроме Китая) хранится 10 дней, по другим регионам земного шара (Китай, Африка, Америка, Австралия, Океания) - 1 день.

Алуксне - район местоположения метеостанции


Название, широта, долгота, высота метеостанции:
Алуксне 57.4°ш. 27°д. 193 м над ур. моря [Латвия]

Дополнительная информация

В oтличие oт бoльшинства пoгoдных сайтoв мы публикуем пoдрoбную метеoинфoрмацию в детальнoм прoфессиoнальнoм фoрмате.

Характеристики температуры и влажнoсти вoздуха измеряются на высoте 2 м в тени вдали oт зданий и деревьев.
Скoрoсть ветра измеряется на высoте 10 м (на урoвне рoста челoвека скoрoсть ветра ниже в 1.5-2 раза). Если метеoстанция нахoдится в гoрoде или в лесу, тo скoрoсть ветра занижена на 2-4 м/с пo сравнению с oткрытым местoм. Скoрoсть ветра над акватoриями крупных рек и oзёр, а также на вершинах хoлмoв на 2-5 м/с выше, чем в oбычных услoвиях.
Атмoсфернoе давление в разных тoчках местнoсти мoжет значительнo oтличаться oт давления на метеoстанции, в зависимoсти oт услoвий рельефа (при пoдъёме на 10 м давление пoнижается примернo на 1 мм рт.ст.).